BAF391 EBBR-EBBE

Flight info

Callsign BAF391
Flight time 0h 40m
Altitude 3500
Route DCT HUL DCT
Aircraft A400/M-SDE2E3FGRY/H

Departure

Time 2026-04-16 13:47
Airport Brussels Airport (EBBR)

Arrival

Time 2026-04-16 14:28
Airport Beauvechain Air Base (EBBE)
Time Latitude Longitude Altitude Speed Heading
2026-04-16 13:36 50.91408 4.49442 129 ft 0 kts 329°
2026-04-16 13:44 50.91402 4.49447 124 ft 2 kts 330°
2026-04-16 13:44 50.91385 4.49461 124 ft 3 kts 339°
2026-04-16 13:44 50.91366 4.49471 124 ft 3 kts 347°
2026-04-16 13:44 50.91349 4.49476 124 ft 1 kts 351°
2026-04-16 13:45 50.91344 4.49478 125 ft 0 kts 351°
2026-04-16 13:45 50.91355 4.49488 124 ft 6 kts 41°
2026-04-16 13:45 50.91400 4.49606 125 ft 21 kts 62°
2026-04-16 13:45 50.91459 4.49829 127 ft 21 kts 80°
2026-04-16 13:46 50.91385 4.49988 125 ft 18 kts 152°
2026-04-16 13:46 50.91296 4.50056 124 ft 10 kts 160°
2026-04-16 13:46 50.91227 4.50087 128 ft 10 kts 185°
2026-04-16 13:46 50.91181 4.50020 126 ft 9 kts 243°
2026-04-16 13:47 50.91153 4.49932 128 ft 9 kts 245°
2026-04-16 13:47 50.90984 4.49354 125 ft 123 kts 245°
2026-04-16 13:47 50.90547 4.47881 1009 ft 140 kts 244°
2026-04-16 13:47 50.90146 4.46354 2373 ft 163 kts 249°
2026-04-16 13:48 50.89759 4.44525 3372 ft 205 kts 252°
2026-04-16 13:48 50.89345 4.42042 3869 ft 257 kts 256°
2026-04-16 13:48 50.89244 4.39014 4252 ft 293 kts 279°
2026-04-16 13:48 50.90076 4.36027 5215 ft 303 kts 304°
2026-04-16 13:49 50.91673 4.33813 6290 ft 311 kts 328°
2026-04-16 13:49 50.93763 4.32728 7065 ft 328 kts 349°
2026-04-16 13:49 50.96112 4.32672 7609 ft 344 kts
2026-04-16 13:49 50.98524 4.33222 7973 ft 359 kts 15°
2026-04-16 13:50 51.00656 4.35115 8902 ft 308 kts 32°
2026-04-16 13:50 51.01222 4.37475 11815 ft 229 kts 107°
2026-04-16 13:50 51.00715 4.40200 11526 ft 286 kts 109°
2026-04-16 13:50 51.00085 4.43469 9611 ft 329 kts 109°
2026-04-16 13:51 50.99309 4.47075 7632 ft 358 kts 111°
2026-04-16 13:51 50.98500 4.50593 7614 ft 321 kts 112°
2026-04-16 13:51 50.97707 4.53744 6585 ft 306 kts 116°
2026-04-16 13:51 50.97126 4.57041 4449 ft 320 kts 109°
2026-04-16 13:52 50.95939 4.59878 4017 ft 291 kts 134°
2026-04-16 13:52 50.94479 4.61927 3788 ft 276 kts 153°
2026-04-16 13:52 50.92703 4.62427 3589 ft 254 kts 193°
2026-04-16 13:52 50.91345 4.60881 3536 ft 247 kts 238°
2026-04-16 13:53 50.91081 4.58340 3168 ft 232 kts 282°
2026-04-16 13:53 50.92002 4.56390 2894 ft 226 kts 327°
2026-04-16 13:53 50.93537 4.56086 2514 ft 223 kts 357°
2026-04-16 13:53 50.94444 4.54519 978 ft 231 kts 256°
2026-04-16 13:54 50.93401 4.53019 679 ft 206 kts 198°
2026-04-16 13:54 50.92069 4.52284 711 ft 194 kts 224°
2026-04-16 13:54 50.91358 4.50638 303 ft 179 kts 248°
2026-04-16 13:54 50.90794 4.48769 148 ft 198 kts 246°
2026-04-16 13:55 50.90240 4.46801 145 ft 186 kts 245°
2026-04-16 13:55 50.89915 4.45187 1964 ft 151 kts 254°
2026-04-16 13:55 50.89779 4.43248 2570 ft 197 kts 271°
2026-04-16 13:55 50.89666 4.41031 3179 ft 207 kts 254°
2026-04-16 13:56 50.89185 4.38864 3589 ft 210 kts 248°
2026-04-16 13:56 50.88634 4.36705 3616 ft 213 kts 247°
2026-04-16 13:56 50.88076 4.34544 3392 ft 215 kts 248°
2026-04-16 13:56 50.87602 4.32285 3130 ft 220 kts 262°
2026-04-16 13:57 50.87886 4.29831 3001 ft 240 kts 294°
2026-04-16 13:57 50.89020 4.27825 2969 ft 252 kts 322°
2026-04-16 13:57 50.90667 4.26807 2975 ft 259 kts 349°
2026-04-16 13:58 50.93877 4.28456 2967 ft 241 kts 31°
2026-04-16 13:58 50.95277 4.29912 2967 ft 240 kts 33°
2026-04-16 13:58 50.96512 4.31601 2717 ft 231 kts 47°
2026-04-16 13:58 50.97538 4.33596 2180 ft 237 kts 52°
2026-04-16 13:59 50.98494 4.35725 1987 ft 237 kts 60°
2026-04-16 13:59 50.99215 4.38078 1961 ft 237 kts 66°
2026-04-16 13:59 50.99878 4.40493 1968 ft 238 kts 67°
2026-04-16 13:59 51.00532 4.42909 1962 ft 238 kts 67°
2026-04-16 14:00 51.01181 4.45329 1960 ft 238 kts 67°
2026-04-16 14:00 51.01786 4.47745 1970 ft 239 kts 74°
2026-04-16 14:00 51.01813 4.50340 1965 ft 226 kts 107°
2026-04-16 14:00 51.01026 4.52341 1954 ft 213 kts 143°
2026-04-16 14:01 50.99718 4.53242 1969 ft 202 kts 176°
2026-04-16 14:01 50.98324 4.53274 1967 ft 198 kts 187°
2026-04-16 14:01 50.97048 4.52593 1916 ft 192 kts 219°
2026-04-16 14:01 50.96053 4.51280 1510 ft 189 kts 198°
2026-04-16 14:02 50.94723 4.51330 962 ft 195 kts 178°
2026-04-16 14:02 50.93393 4.51178 571 ft 190 kts 197°
2026-04-16 14:02 50.92110 4.50607 314 ft 190 kts 199°
2026-04-16 14:02 50.90814 4.50039 150 ft 194 kts 197°
2026-04-16 14:03 50.89529 4.49452 178 ft 190 kts 194°
2026-04-16 14:03 50.88279 4.49010 629 ft 182 kts 195°
2026-04-16 14:03 50.87002 4.48637 1413 ft 189 kts 194°
2026-04-16 14:03 50.85810 4.48265 1677 ft 162 kts 194°
2026-04-16 14:04 50.84700 4.47907 1280 ft 166 kts 195°
2026-04-16 14:04 50.83523 4.47520 749 ft 179 kts 194°
2026-04-16 14:04 50.82286 4.47115 503 ft 188 kts 194°
2026-04-16 14:04 50.80976 4.46677 486 ft 201 kts 195°
2026-04-16 14:05 50.80597 4.46483 413 ft 0 kts 89°
2026-04-16 14:05 50.80596 4.46486 396 ft 0 kts 94°
2026-04-16 14:05 50.80597 4.46486 396 ft 0 kts 94°
2026-04-16 14:05 50.80596 4.46486 396 ft 0 kts 94°
2026-04-16 14:06 50.80597 4.46486 396 ft 0 kts 94°
2026-04-16 14:07 50.80596 4.46486 396 ft 0 kts 95°
2026-04-16 14:08 50.91015 4.49894 126 ft 0 kts 24°
2026-04-16 14:08 50.91164 4.49978 124 ft 0 kts 245°
2026-04-16 14:10 50.91163 4.49976 129 ft 1 kts 245°
2026-04-16 14:10 50.91162 4.49974 124 ft 0 kts 245°
2026-04-16 14:10 50.91162 4.49973 124 ft 0 kts 245°
2026-04-16 14:10 50.91132 4.49866 128 ft 50 kts 246°
2026-04-16 14:11 50.90860 4.48941 284 ft 115 kts 221°
2026-04-16 14:11 50.90373 4.48090 123 ft 78 kts 224°
2026-04-16 14:11 50.90225 4.47906 123 ft 7 kts 236°
2026-04-16 14:11 50.90186 4.47947 123 ft 6 kts 236°
2026-04-16 14:12 50.91162 4.49973 124 ft 6 kts 245°
2026-04-16 14:12 50.91026 4.49495 124 ft 88 kts 245°
2026-04-16 14:12 50.90597 4.48195 203 ft 163 kts 229°
2026-04-16 14:12 50.89486 4.47827 834 ft 190 kts 163°
2026-04-16 14:13 50.88887 4.49600 1053 ft 233 kts 47°
2026-04-16 14:13 50.90320 4.49925 1797 ft 228 kts 340°
2026-04-16 14:13 50.91939 4.49034 1633 ft 270 kts 337°
2026-04-16 14:13 50.93884 4.48466 1377 ft 296 kts 357°
2026-04-16 14:14 50.95231 4.50130 2235 ft 260 kts 102°
2026-04-16 14:14 50.94227 4.51880 2450 ft 192 kts 181°
2026-04-16 14:14 50.92856 4.51944 1010 ft 214 kts 186°
2026-04-16 14:14 50.91572 4.51075 566 ft 190 kts 230°
2026-04-16 14:15 50.91006 4.49437 126 ft 115 kts 247°
2026-04-16 14:15 50.90834 4.48839 127 ft 31 kts 243°
2026-04-16 14:15 50.90795 4.48706 126 ft 2 kts 245°
2026-04-16 14:15 50.90802 4.48730 128 ft 0 kts 245°
2026-04-16 14:16 50.90799 4.48719 127 ft 0 kts 245°
2026-04-16 14:18 50.91164 4.49978 124 ft 0 kts 245°
2026-04-16 14:21 50.91163 4.49977 124 ft 0 kts 245°
2026-04-16 14:21 50.91076 4.49660 124 ft 80 kts 246°
2026-04-16 14:21 50.90705 4.48378 127 ft 168 kts 245°
2026-04-16 14:21 50.90181 4.46641 968 ft 162 kts 231°
2026-04-16 14:22 50.89143 4.46082 2097 ft 176 kts 168°
2026-04-16 14:22 50.88224 4.47410 3101 ft 196 kts 111°
2026-04-16 14:22 50.87685 4.49621 3512 ft 237 kts 107°
2026-04-16 14:22 50.87795 4.51246 3435 ft 274 kts 66°
2026-04-16 14:24 50.88160 4.54159 3401 ft 300 kts 110°
2026-04-16 14:24 50.86636 4.56412 3215 ft 322 kts 161°
2026-04-16 14:24 50.84419 4.57516 2943 ft 345 kts 165°
2026-04-16 14:24 50.82090 4.58810 2694 ft 362 kts 161°
2026-04-16 14:25 50.79789 4.60304 2652 ft 348 kts 158°
2026-04-16 14:25 50.77691 4.61879 2532 ft 318 kts 155°
2026-04-16 14:25 50.75805 4.63398 2417 ft 290 kts 159°
2026-04-16 14:25 50.74022 4.64585 2302 ft 268 kts 161°
2026-04-16 14:26 50.72380 4.65650 2270 ft 249 kts 159°
2026-04-16 14:26 50.71035 4.67242 2249 ft 240 kts 130°
2026-04-16 14:26 50.70429 4.69580 2157 ft 227 kts 96°
2026-04-16 14:26 50.70837 4.71874 1641 ft 223 kts 47°
2026-04-16 14:27 50.72090 4.73231 997 ft 214 kts 22°
2026-04-16 14:27 50.73411 4.74030 728 ft 193 kts 25°
2026-04-16 14:27 50.74535 4.75070 480 ft 177 kts 44°
2026-04-16 14:27 50.75459 4.76295 372 ft 163 kts 33°
2026-04-16 14:28 50.75963 4.76999 360 ft 53 kts 76°
2026-04-16 14:28 50.76028 4.77487 371 ft 39 kts 78°
2026-04-16 14:28 50.75970 4.77677 371 ft 43 kts 150°